TimeCDT,TemperatureF,Dew PointF,Humidity,Sea Level PressureIn,VisibilityMPH,Wind Direction,Wind SpeedMPH,Gust SpeedMPH,PrecipitationIn,Events,Conditions,WindDirDegrees,DateUTC
12:52 AM,55.0,54.0,96,30.16,10.0,Calm,Calm,-,N/A,,Partly Cloudy,0,2013-08-10 05:52:00
1:52 AM,54.0,52.0,93,30.16,10.0,Calm,Calm,-,N/A,,Clear,0,2013-08-10 06:52:00
2:52 AM,55.0,53.1,93,30.18,10.0,SW,4.6,-,N/A,,Overcast,230,2013-08-10 07:52:00
3:52 AM,53.1,52.0,96,30.18,10.0,West,3.5,-,N/A,,Partly Cloudy,260,2013-08-10 08:52:00
4:52 AM,53.1,51.1,93,30.19,10.0,NNW,3.5,-,N/A,,Clear,340,2013-08-10 09:52:00
5:52 AM,52.0,50.0,93,30.19,10.0,Calm,Calm,-,N/A,,Clear,0,2013-08-10 10:52:00
6:52 AM,51.1,50.0,96,30.19,10.0,Calm,Calm,-,N/A,,Clear,0,2013-08-10 11:52:00
7:52 AM,55.9,55.9,100,30.21,10.0,Calm,Calm,-,N/A,,Mostly Cloudy,0,2013-08-10 12:52:00
8:52 AM,64.0,57.0,78,30.20,10.0,Calm,Calm,-,N/A,,Clear,0,2013-08-10 13:52:00
9:52 AM,68.0,55.9,65,30.20,10.0,SW,3.5,-,N/A,,Partly Cloudy,220,2013-08-10 14:52:00
10:52 AM,71.1,55.0,57,30.21,10.0,Calm,Calm,-,N/A,,Mostly Cloudy,0,2013-08-10 15:52:00
11:52 AM,73.0,55.9,55,30.19,10.0,Calm,Calm,-,N/A,,Clear,0,2013-08-10 16:52:00
12:52 PM,75.0,59.0,57,30.18,10.0,WNW,3.5,-,N/A,,Clear,290,2013-08-10 17:52:00
1:52 PM,75.0,59.0,57,30.17,10.0,Calm,Calm,-,N/A,,Scattered Clouds,0,2013-08-10 18:52:00
2:52 PM,77.0,61.0,58,30.15,10.0,Variable,3.5,-,N/A,,Overcast,0,2013-08-10 19:52:00
3:52 PM,77.0,61.0,58,30.14,10.0,WSW,4.6,-,N/A,,Overcast,250,2013-08-10 20:52:00
4:52 PM,75.9,61.0,60,30.13,10.0,West,5.8,-,N/A,,Overcast,260,2013-08-10 21:52:00
5:52 PM,69.1,63.0,81,30.16,4.0,West,15.0,24.2,0.01,Rain,Light Rain,270,2013-08-10 22:52:00
6:02 PM,66.2,64.4,94,30.16,1.8,West,9.2,21.9,0.05,Rain,Heavy Rain,260,2013-08-10 23:02:00
6:14 PM,66.2,64.4,94,30.15,3.0,West,6.9,-,0.07,Rain,Light Rain,260,2013-08-10 23:14:00
6:52 PM,66.9,64.9,93,30.13,6.0,SW,3.5,-,0.09,Rain,Light Rain,220,2013-08-10 23:52:00
7:52 PM,66.9,66.0,97,30.11,6.0,Calm,Calm,-,0.00,,Clear,0,2013-08-11 00:52:00
8:52 PM,64.9,64.9,100,30.09,5.0,SE,3.5,-,N/A,,Overcast,140,2013-08-11 01:52:00
9:52 PM,64.9,64.9,100,30.08,6.0,Calm,Calm,-,N/A,,Mostly Cloudy,0,2013-08-11 02:52:00
10:52 PM,64.0,64.0,100,30.10,4.0,Calm,Calm,-,N/A,,Mostly Cloudy,0,2013-08-11 03:52:00
11:52 PM,64.0,64.0,100,30.08,5.0,ESE,4.6,-,N/A,,Partly Cloudy,120,2013-08-11 04:52:00